Weather in Malokazakkulovo

Russia / Republic of Bashkortostan     54°03′19″N   58°56′42″E
temp.,
°C
wind,
m/s
gust,
m/s
humid.,
%
clouds,
%
prec.,
mm/h
press.,
hPa
HPBL,
m
26 february, fri
fri2623:00−25nw119115 0.0 103120
02:00−27nw11930 0.0 103020
05:00−28wnw11910 0.0 103020
08:00−29wnw11860 0.0 102919
11:00−22sse11810 0.0 1028107
14:00−19sse23810 0.0 1027241
17:00−20sse23900 0.0 1026159
20:00−26s239911 0.0 102619
27 february, sat
sat2723:00−27ssw2310054 0.0 102524
02:00−28ssw33100100 0.0 102334
05:00−28s22100100 0.1 102124
08:00−26se12100100 0.1 101885
11:00−23se2497100 0.9 1015354
14:00−18se3695100 1.3 1011493
17:00−15nne3496100 1.9 1008178
20:00−16n3497100 0.6 100682
28 february, sun
sun2823:00−16n2397100 1.1 100560
02:00−15n229599 0.1 100328
05:00−14n229699 0.3 100357
08:00−13nne2296100 0.3 100230
11:00−10ne2293100 0.6 1002161
14:00−8ene2292100 0.3 1001242
17:00−8ene2394100 0.6 1002255
20:00−10nne3596100 0.3 1004119
1 march, mon
mon123:00−12nne369695 0.4 1007124
02:00−14nne239698 0.1 100929
05:00−16ne119795 0.1 101220
08:00−17e1197100 0.1 101420
11:00−14ese1192100 0.3 1016213
14:00−12se2289100 0.1 1016305
17:00−12se2292100 0.1 1017264
20:00−16ese1198100 0.1 101820
2 march, tue
tue223:00−17nne0198100 0.3 101920
02:00−20wnw1110091 0.1 101820
05:00−21wnw1110085 0.1 101820
08:00−22wnw11986 0.0 101720
11:00−16wsw22893 0.0 1015162
14:00−10sw35814 0.0 1012423
17:00−10ssw378837 0.0 1011296
20:00−11sw2388100 0.0 101061